Simultaneous Nadir Overpasses (SNOs) Predictions

Prediction of SNOs between NOAA-20 and NOAA-19 Satellite Orbit:

Table of predicted SNOs for the next 14.0 days since TLE Epoch: 10/26/2018
Index Date (NOAA-20) Time (NOAA-20) Lat,Lon (NOAA-20) SZA (NOAA-20 ) Date (NOAA-19) Time (NOAA-19) Lat,Lon (NOAA-19) SZA (NOAA-19 ) Distance(km) Time Diff (sec)
1 11/03/2018 14:50:44 -80.37, 94.14 82.42 11/03/2018 14:49:42 -80.37, 94.24 82.41 1.88 62
2 11/03/2018 15:41:29 80.37, -98.48 97.58 11/03/2018 15:40:40 80.37, -98.49 97.61 0.75 49
3 11/03/2018 16:32:14 -80.37, 68.73 82.40 11/03/2018 16:31:43 -80.37, 68.75 82.39 0.28 31
4 11/03/2018 17:22:59 80.37,-123.89 97.61 11/03/2018 17:22:41 80.37,-123.98 97.63 1.74 18
5 11/03/2018 18:13:44 -80.38, 43.33 82.37 11/03/2018 18:13:44 -80.37, 43.25 82.37 1.43 0
6 11/03/2018 19:04:29 80.37,-149.30 97.64 11/03/2018 19:04:42 80.37,-149.47 97.65 3.20 13
7 11/03/2018 19:55:14 -80.38, 17.92 82.34 11/03/2018 19:55:45 -80.37, 17.76 82.34 3.07 31
8 11/03/2018 20:45:59 80.38,-174.71 97.66 11/03/2018 20:46:42 80.39,-174.62 97.65 2.60 43
9 11/03/2018 21:36:44 -80.38, -7.49 82.32 11/03/2018 21:37:45 -80.39, -7.40 82.34 1.99 61




NCC Satellite Simultaneous Nadir Overpasses (SNOs) Prediction Service
